QPF
0.01 0.00 0.00 0.00 0.00 0.00 0.01 0.01 0.00 0.01 0.01 0.01 0.01 0.01 0.01 0.01 0.01 0.01 0.01 0.01 0.01 0.01 0.02 0.02 0.01 0.02 0.02 0.01 0.02 0.03 0.03 0.03 0.03 0.03 0.03 0.06 0.07 0.04 0.04 0.05 0.05 0.05 0.06 0.06
0.00 0.00 0.00 0.00 0.00 0.00 0.00 0.01 0.01 0.01 0.01 0.01 0.01 0.00 0.01 0.01 0.01 0.01 0.01 0.01 0.01 0.01 0.01 0.02 0.02 0.02 0.01 0.01 0.02 0.02 0.01 0.02 0.03 0.03 0.04 0.06 0.06 0.05 0.05 0.03 0.03 0.04 0.04 0.04
0.00 0.00 0.00 0.01 0.01 0.01 0.01 0.01 0.01 0.02 0.02 0.01 0.00 0.00 0.00 0.00 0.00 0.01 0.01 0.02 0.01 0.01 0.02 0.02 0.02 0.01 0.01 0.01 0.01 0.01 0.02 0.03 0.03 0.03 0.03 0.03 0.04 0.04 0.03 0.03 0.03 0.03 0.03 0.03
0.00 0.00 0.01 0.02 0.01 0.02 0.02 0.04 0.02 0.02 0.02 0.01 0.01 0.01 0.01 0.01 0.01 0.02 0.02 0.01 0.01 0.01 0.02 0.02 0.02 0.01 0.01 0.01 0.01 0.01 0.02 0.03 0.04 0.03 0.03 0.03 0.04 0.03 0.03 0.02 0.02 0.02 0.02 0.02
0.00 0.00 0.01 0.01 0.02 0.02 0.02 0.04 0.03 0.01 0.01 0.01 0.01 0.01 0.01 0.01 0.02 0.03 0.05 0.04 0.03 0.02 0.02 0.02 0.01 0.01 0.01 0.01 0.01 0.02 0.03 0.04 0.04 0.04 0.03 0.04 0.04 0.03 0.03 0.03 0.03 0.03 0.03 0.02
0.00 0.00 0.00 0.01 0.01 0.01 0.02 0.03 0.02 0.01 0.01 0.01 0.01 0.01 0.01 0.01 0.01 0.02 0.03 0.05 0.04 0.03 0.02 0.02 0.01 0.02 0.02 0.03 0.04 0.06 0.06 0.06 0.06 0.04 0.04 0.04 0.03 0.03 0.04 0.04 0.04 0.04 0.04 0.03
0.00 0.00 0.00 0.01 0.01 0.02 0.02 0.02 0.01 0.01 0.01 0.01 0.02 0.01 0.01 0.01 0.02 0.02 0.04 0.03 0.02 0.02 0.02 0.01 0.01 0.02 0.03 0.03 0.03 0.04 0.05 0.07 0.06 0.05 0.04 0.04 0.04 0.04 0.03 0.04 0.03 0.03 0.03 0.03
0.00 0.00 0.01 0.01 0.01 0.02 0.02 0.01 0.01 0.01 0.01 0.02 0.02 0.02 0.01 0.01 0.01 0.02 0.02 0.03 0.03 0.02 0.02 0.02 0.03 0.03 0.03 0.02 0.02 0.02 0.02 0.03 0.03 0.03 0.03 0.03 0.04 0.04 0.04 0.03 0.04 0.04 0.03 0.02
0.01 0.01 0.01 0.01 0.02 0.02 0.02 0.02 0.01 0.01 0.02 0.02 0.02 0.02 0.01 0.01 0.01 0.02 0.02 0.02 0.03 0.02 0.02 0.03 0.04 0.03 0.02 0.02 0.03 0.02 0.02 0.02 0.02 0.02 0.03 0.03 0.03 0.04 0.04 0.04 0.04 0.04 0.03 0.03
0.02 0.01 0.01 0.02 0.02 0.02 0.02 0.02 0.02 0.02 0.01 0.01 0.01 0.01 0.01 0.02 0.02 0.02 0.02 0.02 0.02 0.02 0.02 0.02 0.02 0.02 0.02 0.02 0.02 0.02 0.01 0.02 0.02 0.02 0.03 0.03 0.03 0.04 0.04 0.05 0.04 0.04 0.03 0.03
0.02 0.02 0.02 0.03 0.03 0.03 0.03 0.03 0.02 0.01 0.01 0.01 0.01 0.01 0.01 0.01 0.02 0.04 0.04 0.03 0.03 0.03 0.04 0.05 0.04 0.03 0.02 0.02 0.03 0.03 0.03 0.03 0.02 0.02 0.03 0.04 0.04 0.04 0.05 0.05 0.05 0.05 0.04 0.03
0.03 0.03 0.03 0.03 0.04 0.04 0.03 0.02 0.02 0.02 0.01 0.01 0.01 0.02 0.02 0.03 0.04 0.04 0.04 0.04 0.04 0.04 0.06 0.07 0.08 0.07 0.06 0.05 0.05 0.05 0.05 0.05 0.04 0.04 0.05 0.06 0.06 0.06 0.07 0.07 0.08 0.07 0.06 0.06
0.03 0.03 0.03 0.03 0.04 0.04 0.04 0.03 0.02 0.02 0.02 0.02 0.02 0.03 0.03 0.03 0.03 0.03 0.03 0.04 0.04 0.04 0.06 0.09 0.11 0.09 0.08 0.06 0.06 0.06 0.07 0.07 0.06 0.05 0.06 0.07 0.07 0.06 0.06 0.06 0.06 0.06 0.06 0.06
0.05 0.04 0.03 0.03 0.04 0.04 0.04 0.03 0.03 0.03 0.03 0.03 0.03 0.03 0.02 0.02 0.02 0.03 0.03 0.03 0.04 0.05 0.05 0.05 0.07 0.09 0.11 0.10 0.07 0.06 0.06 0.07 0.06 0.05 0.05 0.05 0.05 0.06 0.06 0.05 0.04 0.04 0.05 0.05
0.05 0.05 0.03 0.03 0.04 0.05 0.05 0.05 0.04 0.04 0.04 0.04 0.04 0.04 0.03 0.03 0.04 0.04 0.04 0.04 0.04 0.04 0.04 0.04 0.04 0.04 0.07 0.08 0.07 0.06 0.05 0.04 0.05 0.05 0.05 0.05 0.04 0.04 0.04 0.05 0.06 0.05 0.05 0.05
0.05 0.08 0.05 0.05 0.06 0.06 0.06 0.06 0.04 0.05 0.04 0.05 0.06 0.06 0.06 0.05 0.04 0.05 0.05 0.05 0.04 0.03 0.03 0.04 0.04 0.04 0.05 0.05 0.04 0.04 0.04 0.04 0.03 0.03 0.03 0.03 0.03 0.04 0.03 0.03 0.03 0.04 0.05 0.05
0.05 0.09 0.07 0.07 0.08 0.05 0.04 0.05 0.05 0.07 0.07 0.06 0.07 0.08 0.08 0.07 0.07 0.07 0.08 0.08 0.06 0.04 0.03 0.03 0.03 0.03 0.03 0.03 0.02 0.03 0.04 0.04 0.04 0.04 0.03 0.02 0.02 0.02 0.02 0.02 0.02 0.03 0.02 0.03
0.03 0.05 0.06 0.04 0.03 0.03 0.04 0.05 0.06 0.04 0.04 0.07 0.08 0.08 0.08 0.08 0.08 0.09 0.10 0.09 0.07 0.06 0.04 0.03 0.02 0.02 0.02 0.02 0.02 0.02 0.03 0.03 0.03 0.04 0.04 0.03 0.03 0.02 0.02 0.03 0.03 0.04 0.04 0.04
0.04 0.05 0.04 0.03 0.02 0.03 0.04 0.05 0.05 0.04 0.04 0.06 0.07 0.08 0.08 0.09 0.08 0.08 0.08 0.08 0.07 0.07 0.05 0.03 0.02 0.02 0.02 0.02 0.01 0.01 0.02 0.03 0.02 0.02 0.03 0.03 0.03 0.03 0.02 0.02 0.02 0.03 0.03 0.04
0.04 0.05 0.06 0.06 0.05 0.05 0.05 0.06 0.08 0.09 0.08 0.07 0.06 0.06 0.06 0.07 0.07 0.07 0.05 0.05 0.05 0.06 0.04 0.03 0.02 0.02 0.02 0.02 0.01 0.01 0.01 0.01 0.01 0.02 0.02 0.02 0.02 0.03 0.03 0.02 0.02 0.02 0.02 0.02
0.04 0.06 0.10 0.10 0.09 0.08 0.09 0.09 0.08 0.07 0.06 0.05 0.04 0.03 0.04 0.04 0.04 0.04 0.04 0.03 0.03 0.04 0.03 0.03 0.02 0.02 0.02 0.02 0.02 0.02 0.01 0.01 0.01 0.01 0.01 0.01 0.01 0.02 0.02 0.02 0.02 0.02 0.02 0.02
0.05 0.08 0.10 0.07 0.05 0.05 0.05 0.05 0.04 0.03 0.03 0.02 0.02 0.02 0.02 0.02 0.02 0.02 0.01 0.01 0.01 0.02 0.02 0.03 0.03 0.03 0.03 0.03 0.02 0.02 0.02 0.02 0.01 0.01 0.01 0.01 0.01 0.01 0.01 0.01 0.01 0.02 0.02 0.01
0.04 0.06 0.07 0.05 0.04 0.02 0.02 0.02 0.01 0.02 0.02 0.01 0.01 0.01 0.01 0.01 0.01 0.01 0.01 0.01 0.01 0.03 0.04 0.04 0.03 0.04 0.04 0.03 0.03 0.03 0.03 0.02 0.02 0.01 0.01 0.01 0.01 0.01 0.01 0.01 0.01 0.01 0.01 0.01
0.03 0.03 0.03 0.04 0.03 0.02 0.01 0.01 0.01 0.01 0.01 0.01 0.01 0.01 0.00 0.01 0.01 0.01 0.01 0.02 0.03 0.04 0.04 0.05 0.05 0.05 0.05 0.04 0.03 0.03 0.03 0.02 0.02 0.02 0.02 0.01 0.01 0.02 0.02 0.01 0.01 0.01 0.01 0.01
0.02 0.02 0.03 0.03 0.02 0.02 0.02 0.01 0.01 0.01 0.01 0.01 0.01 0.01 0.01 0.01 0.01 0.02 0.04 0.06 0.06 0.06 0.05 0.04 0.04 0.05 0.05 0.05 0.04 0.03 0.03 0.03 0.03 0.02 0.02 0.01 0.02 0.02 0.02 0.01 0.01 0.01 0.01 0.01
0.02 0.03 0.04 0.03 0.02 0.02 0.02 0.02 0.01 0.01 0.01 0.01 0.01 0.01 0.00 0.00 0.01 0.01 0.03 0.05 0.06 0.06 0.04 0.04 0.03 0.03 0.04 0.04 0.03 0.02 0.03 0.04 0.03 0.03 0.03 0.03 0.02 0.02 0.01 0.01 0.01 0.01 0.01 0.01
0.02 0.02 0.02 0.02 0.01 0.01 0.02 0.02 0.01 0.01 0.00 0.01 0.01 0.01 0.01 0.01 0.02 0.02 0.03 0.03 0.03 0.03 0.03 0.03 0.02 0.02 0.02 0.02 0.02 0.02 0.02 0.02 0.01 0.01 0.02 0.02 0.02 0.01 0.01 0.01 0.01 0.01 0.01 0.01
MSLP
1007.42 1008.04 1008.65 1009.22 1009.76 1010.23 1010.63 1010.93 1011.11 1011.16 1011.09 1010.91 1010.63 1010.28 1009.89 1009.47 1009.02 1008.54 1008.04 1007.51 1006.94 1006.33 1005.70 1005.06 1004.44 1003.84 1003.31 1002.85 1002.47 1002.19 1002.01 1001.92 1001.93 1002.03 1002.23 1002.52 1002.90 1003.38 1003.93 1004.54 1005.19 1005.86 1006.54 1007.19
1007.65 1008.29 1008.86 1009.35 1009.77 1010.12 1010.38 1010.57 1010.69 1010.72 1010.69 1010.58 1010.40 1010.15 1009.85 1009.47 1009.04 1008.53 1007.96 1007.33 1006.65 1005.92 1005.19 1004.46 1003.76 1003.12 1002.55 1002.06 1001.67 1001.38 1001.19 1001.09 1001.10 1001.20 1001.42 1001.74 1002.16 1002.69 1003.30 1003.98 1004.70 1005.43 1006.16 1006.86
1008.00 1008.63 1009.17 1009.59 1009.92 1010.15 1010.32 1010.43 1010.49 1010.52 1010.50 1010.44 1010.32 1010.14 1009.87 1009.51 1009.05 1008.49 1007.83 1007.08 1006.27 1005.42 1004.58 1003.76 1003.00 1002.31 1001.71 1001.22 1000.83 1000.55 1000.36 1000.28 1000.29 1000.42 1000.67 1001.03 1001.51 1002.09 1002.77 1003.52 1004.31 1005.12 1005.91 1006.66
1008.39 1008.99 1009.48 1009.84 1010.09 1010.24 1010.34 1010.39 1010.42 1010.43 1010.43 1010.41 1010.33 1010.18 1009.93 1009.57 1009.07 1008.44 1007.69 1006.84 1005.93 1004.98 1004.04 1003.15 1002.34 1001.63 1001.02 1000.53 1000.15 999.88 999.71 999.65 999.69 999.85 1000.13 1000.54 1001.07 1001.71 1002.46 1003.28 1004.13 1005.00 1005.85 1006.65
1008.70 1009.25 1009.67 1009.97 1010.16 1010.26 1010.31 1010.33 1010.34 1010.36 1010.38 1010.39 1010.34 1010.22 1009.99 1009.63 1009.11 1008.44 1007.64 1006.72 1005.74 1004.73 1003.75 1002.82 1001.99 1001.26 1000.66 1000.18 999.82 999.57 999.43 999.39 999.46 999.64 999.96 1000.40 1000.97 1001.67 1002.46 1003.33 1004.24 1005.16 1006.05 1006.88
1008.83 1009.30 1009.65 1009.90 1010.04 1010.11 1010.14 1010.16 1010.18 1010.22 1010.27 1010.31 1010.31 1010.23 1010.03 1009.69 1009.19 1008.52 1007.72 1006.80 1005.80 1004.79 1003.81 1002.89 1002.07 1001.36 1000.78 1000.33 999.99 999.77 999.65 999.63 999.72 999.92 1000.26 1000.72 1001.32 1002.04 1002.86 1003.75 1004.69 1005.62 1006.52 1007.35
1008.70 1009.08 1009.37 1009.57 1009.69 1009.76 1009.80 1009.84 1009.90 1009.99 1010.09 1010.18 1010.24 1010.21 1010.07 1009.78 1009.33 1008.71 1007.96 1007.09 1006.15 1005.19 1004.25 1003.39 1002.61 1001.96 1001.42 1001.01 1000.70 1000.51 1000.41 1000.41 1000.52 1000.73 1001.07 1001.54 1002.14 1002.85 1003.66 1004.54 1005.46 1006.37 1007.24 1008.04
1008.29 1008.59 1008.83 1009.01 1009.14 1009.24 1009.33 1009.43 1009.55 1009.70 1009.87 1010.03 1010.15 1010.20 1010.13 1009.92 1009.56 1009.04 1008.37 1007.60 1006.76 1005.90 1005.06 1004.27 1003.58 1002.99 1002.52 1002.16 1001.90 1001.74 1001.67 1001.69 1001.80 1002.02 1002.35 1002.81 1003.37 1004.05 1004.82 1005.65 1006.51 1007.36 1008.16 1008.89
1007.66 1007.90 1008.12 1008.31 1008.48 1008.64 1008.81 1008.99 1009.20 1009.44 1009.69 1009.93 1010.13 1010.25 1010.27 1010.15 1009.89 1009.48 1008.94 1008.29 1007.57 1006.84 1006.11 1005.44 1004.84 1004.34 1003.94 1003.64 1003.43 1003.31 1003.27 1003.32 1003.44 1003.66 1003.97 1004.39 1004.91 1005.52 1006.21 1006.96 1007.72 1008.47 1009.17 1009.80
1006.91 1007.12 1007.35 1007.59 1007.84 1008.09 1008.36 1008.65 1008.97 1009.30 1009.63 1009.95 1010.22 1010.42 1010.51 1010.48 1010.32 1010.02 1009.60 1009.09 1008.50 1007.89 1007.29 1006.73 1006.24 1005.82 1005.50 1005.27 1005.12 1005.04 1005.04 1005.11 1005.24 1005.45 1005.74 1006.12 1006.57 1007.10 1007.69 1008.32 1008.97 1009.59 1010.17 1010.68
1006.16 1006.39 1006.67 1006.98 1007.33 1007.70 1008.09 1008.49 1008.91 1009.33 1009.74 1010.12 1010.45 1010.71 1010.87 1010.91 1010.83 1010.63 1010.32 1009.91 1009.45 1008.96 1008.47 1008.01 1007.61 1007.28 1007.03 1006.86 1006.76 1006.73 1006.77 1006.86 1007.01 1007.22 1007.49 1007.81 1008.20 1008.63 1009.11 1009.61 1010.12 1010.61 1011.06 1011.45
1005.56 1005.82 1006.17 1006.58 1007.04 1007.52 1008.03 1008.54 1009.05 1009.55 1010.02 1010.45 1010.81 1011.11 1011.31 1011.40 1011.38 1011.25 1011.02 1010.71 1010.34 1009.94 1009.54 1009.17 1008.84 1008.58 1008.39 1008.27 1008.23 1008.24 1008.31 1008.43 1008.60 1008.80 1009.04 1009.33 1009.64 1009.98 1010.35 1010.73 1011.10 1011.46 1011.79 1012.07
1005.16 1005.48 1005.91 1006.42 1006.98 1007.57 1008.18 1008.78 1009.35 1009.90 1010.41 1010.86 1011.25 1011.56 1011.78 1011.90 1011.93 1011.85 1011.69 1011.44 1011.15 1010.82 1010.49 1010.18 1009.91 1009.69 1009.54 1009.46 1009.45 1009.50 1009.60 1009.74 1009.92 1010.12 1010.35 1010.59 1010.84 1011.10 1011.37 1011.64 1011.90 1012.14 1012.37 1012.56
1004.97 1005.36 1005.87 1006.46 1007.11 1007.79 1008.46 1009.12 1009.74 1010.32 1010.84 1011.29 1011.68 1012.00 1012.23 1012.37 1012.43 1012.40 1012.28 1012.10 1011.86 1011.59 1011.31 1011.04 1010.81 1010.62 1010.50 1010.44 1010.45 1010.52 1010.64 1010.79 1010.98 1011.18 1011.39 1011.60 1011.80 1012.00 1012.19 1012.37 1012.54 1012.70 1012.85 1012.98
1004.95 1005.41 1005.99 1006.65 1007.36 1008.09 1008.81 1009.49 1010.13 1010.70 1011.22 1011.67 1012.05 1012.37 1012.61 1012.78 1012.87 1012.88 1012.82 1012.69 1012.50 1012.28 1012.04 1011.81 1011.60 1011.43 1011.31 1011.26 1011.27 1011.35 1011.47 1011.63 1011.82 1012.02 1012.22 1012.41 1012.59 1012.74 1012.88 1013.00 1013.11 1013.21 1013.31 1013.40
1005.02 1005.55 1006.18 1006.89 1007.64 1008.40 1009.13 1009.81 1010.44 1011.00 1011.50 1011.94 1012.32 1012.64 1012.90 1013.10 1013.23 1013.29 1013.29 1013.22 1013.10 1012.92 1012.72 1012.52 1012.32 1012.16 1012.04 1011.98 1011.99 1012.05 1012.17 1012.34 1012.52 1012.73 1012.92 1013.11 1013.27 1013.41 1013.52 1013.61 1013.69 1013.76 1013.83 1013.90
1005.12 1005.71 1006.39 1007.14 1007.91 1008.66 1009.38 1010.05 1010.66 1011.19 1011.67 1012.10 1012.48 1012.81 1013.09 1013.33 1013.52 1013.65 1013.71 1013.71 1013.64 1013.52 1013.36 1013.18 1013.00 1012.84 1012.71 1012.64 1012.63 1012.69 1012.80 1012.96 1013.15 1013.35 1013.56 1013.76 1013.93 1014.07 1014.18 1014.27 1014.34 1014.39 1014.45 1014.51
1005.20 1005.86 1006.59 1007.36 1008.14 1008.89 1009.58 1010.22 1010.79 1011.30 1011.76 1012.17 1012.55 1012.90 1013.22 1013.50 1013.74 1013.93 1014.06 1014.13 1014.12 1014.05 1013.93 1013.78 1013.61 1013.45 1013.33 1013.24 1013.22 1013.26 1013.37 1013.53 1013.72 1013.95 1014.17 1014.39 1014.59 1014.75 1014.89 1014.99 1015.07 1015.13 1015.19 1015.24
1005.29 1006.01 1006.78 1007.58 1008.36 1009.09 1009.76 1010.37 1010.90 1011.38 1011.82 1012.21 1012.59 1012.95 1013.29 1013.61 1013.90 1014.14 1014.33 1014.45 1014.50 1014.48 1014.39 1014.27 1014.12 1013.97 1013.84 1013.76 1013.73 1013.77 1013.88 1014.05 1014.26 1014.51 1014.77 1015.02 1015.26 1015.47 1015.64 1015.77 1015.87 1015.94 1015.99 1016.03
1005.41 1006.20 1007.02 1007.83 1008.61 1009.33 1009.97 1010.54 1011.04 1011.48 1011.88 1012.26 1012.62 1012.98 1013.33 1013.66 1013.98 1014.25 1014.48 1014.64 1014.72 1014.74 1014.70 1014.60 1014.48 1014.34 1014.23 1014.16 1014.15 1014.20 1014.32 1014.51 1014.76 1015.04 1015.34 1015.64 1015.92 1016.17 1016.38 1016.54 1016.66 1016.74 1016.78 1016.80
1005.63 1006.48 1007.34 1008.17 1008.94 1009.63 1010.25 1010.78 1011.23 1011.63 1012.00 1012.33 1012.67 1013.00 1013.33 1013.66 1013.97 1014.25 1014.49 1014.67 1014.78 1014.82 1014.81 1014.75 1014.65 1014.56 1014.48 1014.44 1014.46 1014.54 1014.70 1014.92 1015.20 1015.53 1015.87 1016.21 1016.53 1016.82 1017.06 1017.25 1017.38 1017.45 1017.48 1017.46
1005.99 1006.88 1007.76 1008.59 1009.34 1010.01 1010.58 1011.06 1011.47 1011.82 1012.13 1012.42 1012.70 1012.99 1013.29 1013.58 1013.87 1014.13 1014.36 1014.54 1014.67 1014.73 1014.75 1014.73 1014.68 1014.63 1014.61 1014.62 1014.69 1014.83 1015.03 1015.30 1015.62 1015.98 1016.36 1016.73 1017.08 1017.39 1017.64 1017.83 1017.96 1018.02 1018.02 1017.96
1006.48 1007.39 1008.26 1009.07 1009.79 1010.41 1010.93 1011.36 1011.71 1012.00 1012.25 1012.48 1012.70 1012.94 1013.18 1013.42 1013.67 1013.90 1014.11 1014.29 1014.42 1014.52 1014.57 1014.60 1014.62 1014.64 1014.69 1014.77 1014.91 1015.11 1015.37 1015.68 1016.04 1016.43 1016.82 1017.20 1017.55 1017.86 1018.10 1018.27 1018.38 1018.40 1018.36 1018.26
1007.07 1007.96 1008.79 1009.54 1010.20 1010.76 1011.22 1011.58 1011.87 1012.10 1012.29 1012.46 1012.63 1012.80 1012.99 1013.19 1013.40 1013.60 1013.80 1013.97 1014.12 1014.25 1014.36 1014.46 1014.56 1014.66 1014.80 1014.97 1015.19 1015.46 1015.77 1016.12 1016.51 1016.90 1017.29 1017.65 1017.98 1018.25 1018.45 1018.58 1018.63 1018.61 1018.52 1018.36
1007.66 1008.49 1009.25 1009.93 1010.51 1010.99 1011.37 1011.66 1011.89 1012.06 1012.20 1012.32 1012.45 1012.58 1012.74 1012.90 1013.09 1013.28 1013.47 1013.67 1013.86 1014.04 1014.22 1014.40 1014.58 1014.79 1015.02 1015.29 1015.58 1015.92 1016.28 1016.66 1017.05 1017.43 1017.78 1018.10 1018.37 1018.57 1018.70 1018.76 1018.75 1018.66 1018.51 1018.30
1008.18 1008.91 1009.57 1010.15 1010.64 1011.03 1011.33 1011.56 1011.73 1011.86 1011.97 1012.07 1012.17 1012.30 1012.44 1012.61 1012.80 1013.00 1013.22 1013.46 1013.70 1013.95 1014.21 1014.48 1014.77 1015.07 1015.40 1015.75 1016.12 1016.50 1016.89 1017.28 1017.65 1018.00 1018.29 1018.54 1018.72 1018.84 1018.88 1018.86 1018.76 1018.61 1018.39 1018.13
1008.53 1009.15 1009.70 1010.17 1010.55 1010.86 1011.09 1011.27 1011.41 1011.52 1011.62 1011.73 1011.85 1011.99 1012.16 1012.36 1012.58 1012.83 1013.10 1013.40 1013.71 1014.03 1014.38 1014.74 1015.11 1015.51 1015.92 1016.33 1016.75 1017.17 1017.57 1017.95 1018.28 1018.57 1018.79 1018.95 1019.04 1019.06 1019.01 1018.89 1018.71 1018.48 1018.21 1017.90
Thickness
5732 5741 5744 5746 5747 5744 5740 5736 5732 5741 5747 5762 5769 5772 5775 5778 5779 5780 5780 5780 5779 5778 5778 5777 5776 5774 5772 5770 5768 5766 5762 5759 5757 5755 5754 5751 5749 5747 5745 5742 5741 5738 5735 5733
5725 5735 5738 5737 5742 5743 5742 5742 5742 5746 5749 5767 5770 5771 5771 5772 5773 5773 5774 5775 5775 5774 5773 5772 5771 5769 5767 5765 5763 5761 5758 5755 5753 5752 5750 5748 5746 5743 5740 5738 5736 5734 5731 5729
5705 5720 5725 5718 5733 5738 5739 5744 5743 5741 5752 5762 5762 5764 5765 5768 5769 5770 5771 5770 5769 5769 5768 5767 5766 5764 5761 5760 5758 5755 5752 5751 5749 5747 5745 5743 5741 5738 5736 5733 5731 5728 5726 5725
5691 5704 5696 5720 5741 5743 5740 5742 5745 5749 5754 5758 5759 5762 5764 5766 5766 5766 5766 5765 5765 5764 5764 5763 5761 5760 5758 5755 5752 5750 5747 5745 5743 5741 5739 5737 5735 5733 5730 5728 5726 5723 5721 5719
5678 5683 5696 5719 5733 5735 5731 5732 5742 5743 5747 5751 5754 5755 5755 5762 5764 5764 5763 5763 5761 5761 5760 5758 5755 5754 5752 5749 5746 5744 5741 5739 5738 5736 5734 5731 5729 5727 5725 5723 5720 5718 5716 5714
5674 5679 5682 5709 5730 5738 5732 5721 5738 5739 5740 5742 5744 5735 5744 5756 5758 5758 5758 5758 5756 5755 5753 5751 5750 5748 5745 5742 5739 5737 5735 5734 5732 5730 5727 5725 5723 5721 5720 5717 5715 5712 5710 5709
5670 5674 5687 5710 5723 5728 5706 5713 5732 5735 5735 5735 5735 5738 5746 5750 5750 5751 5751 5751 5751 5748 5746 5745 5743 5741 5738 5735 5733 5732 5730 5727 5725 5723 5721 5719 5717 5716 5713 5711 5708 5706 5704 5702
5663 5666 5680 5709 5712 5707 5709 5721 5726 5728 5730 5731 5733 5736 5740 5742 5742 5742 5742 5743 5742 5740 5738 5737 5736 5734 5730 5728 5728 5726 5724 5720 5718 5716 5714 5713 5710 5708 5707 5704 5700 5698 5696 5695
5670 5676 5693 5701 5705 5710 5713 5715 5719 5722 5725 5727 5728 5729 5731 5732 5733 5733 5734 5734 5733 5731 5729 5728 5727 5726 5723 5722 5720 5718 5715 5712 5709 5707 5705 5704 5702 5700 5698 5696 5693 5691 5689 5687
5670 5681 5690 5696 5701 5706 5709 5711 5716 5718 5720 5722 5721 5722 5722 5723 5724 5724 5725 5726 5725 5723 5720 5719 5719 5718 5716 5714 5712 5709 5706 5702 5700 5698 5696 5695 5693 5692 5690 5688 5686 5684 5682 5680
5666 5676 5683 5690 5694 5698 5702 5706 5709 5712 5713 5714 5715 5715 5715 5715 5715 5716 5717 5717 5716 5715 5713 5712 5711 5709 5708 5706 5703 5699 5695 5692 5690 5688 5687 5685 5684 5683 5682 5681 5679 5676 5675 5674
5662 5672 5672 5678 5687 5691 5692 5695 5700 5702 5704 5706 5707 5707 5708 5707 5707 5707 5708 5707 5706 5706 5705 5704 5702 5700 5698 5697 5694 5691 5687 5683 5681 5679 5678 5677 5676 5674 5673 5673 5672 5670 5668 5666
5668 5672 5672 5675 5678 5682 5684 5688 5691 5693 5695 5695 5697 5699 5699 5698 5698 5699 5699 5698 5697 5697 5696 5695 5693 5691 5690 5688 5686 5682 5678 5675 5673 5671 5670 5668 5667 5666 5664 5664 5663 5662 5660 5658
5666 5667 5665 5667 5669 5674 5677 5681 5685 5686 5686 5687 5688 5689 5690 5690 5689 5690 5690 5691 5690 5688 5686 5684 5683 5682 5681 5680 5677 5673 5670 5668 5666 5663 5661 5660 5659 5658 5657 5655 5653 5653 5652 5650
5659 5661 5661 5662 5664 5666 5670 5673 5675 5675 5676 5677 5679 5680 5680 5680 5681 5682 5682 5683 5681 5680 5677 5676 5675 5674 5673 5671 5668 5665 5662 5660 5657 5655 5654 5652 5651 5649 5648 5646 5645 5644 5643 5642
5652 5653 5654 5655 5657 5659 5661 5664 5665 5665 5666 5668 5669 5670 5671 5671 5672 5672 5673 5672 5671 5670 5669 5668 5668 5667 5664 5662 5659 5657 5655 5653 5650 5648 5646 5644 5642 5641 5639 5637 5636 5635 5635 5633
5644 5644 5646 5648 5650 5651 5653 5656 5658 5659 5659 5660 5661 5662 5662 5661 5661 5661 5660 5661 5661 5662 5661 5660 5660 5659 5656 5653 5651 5649 5647 5644 5642 5639 5637 5636 5634 5633 5631 5629 5628 5627 5626 5626
5643 5644 5646 5646 5646 5646 5647 5649 5650 5651 5652 5654 5654 5654 5653 5653 5652 5652 5651 5650 5650 5651 5651 5651 5651 5650 5648 5646 5644 5641 5639 5637 5634 5632 5630 5628 5626 5624 5622 5621 5620 5619 5619 5618
5639 5639 5640 5641 5642 5642 5643 5644 5644 5646 5647 5647 5646 5646 5645 5645 5645 5644 5642 5641 5640 5640 5641 5641 5642 5641 5639 5638 5636 5634 5631 5629 5627 5624 5622 5620 5618 5616 5614 5613 5612 5612 5611 5610
5634 5635 5636 5636 5637 5637 5637 5638 5639 5639 5640 5640 5639 5638 5637 5637 5637 5635 5634 5633 5633 5634 5633 5633 5633 5632 5631 5629 5628 5626 5624 5621 5619 5616 5614 5612 5610 5608 5606 5605 5604 5603 5602 5600
5629 5630 5630 5631 5631 5632 5632 5633 5632 5632 5632 5632 5631 5629 5629 5629 5630 5629 5627 5627 5628 5628 5627 5626 5625 5624 5622 5621 5620 5618 5616 5614 5611 5608 5606 5603 5601 5599 5597 5596 5595 5593 5592 5591
5623 5624 5625 5626 5626 5625 5626 5626 5626 5626 5625 5624 5624 5623 5621 5621 5622 5621 5621 5620 5621 5621 5620 5619 5618 5617 5615 5613 5612 5610 5608 5605 5603 5600 5597 5595 5592 5590 5589 5587 5586 5584 5583 5581
5617 5618 5619 5620 5619 5619 5619 5619 5619 5619 5618 5617 5616 5615 5615 5614 5614 5614 5613 5615 5614 5614 5613 5612 5610 5609 5607 5605 5603 5601 5599 5596 5594 5591 5589 5586 5584 5582 5580 5579 5578 5576 5574 5572
5611 5612 5613 5614 5614 5613 5612 5612 5612 5612 5612 5611 5611 5610 5609 5608 5608 5608 5608 5609 5608 5607 5606 5604 5603 5601 5599 5597 5595 5593 5591 5589 5586 5583 5581 5579 5577 5574 5573 5571 5570 5568 5566 5563
5607 5607 5607 5607 5608 5607 5606 5606 5605 5605 5605 5605 5605 5605 5604 5603 5602 5602 5602 5602 5601 5599 5598 5596 5594 5592 5591 5588 5587 5585 5583 5581 5579 5577 5574 5572 5570 5567 5565 5563 5561 5559 5557 5555
5604 5603 5603 5603 5602 5601 5601 5600 5600 5600 5600 5599 5599 5599 5598 5598 5597 5596 5595 5595 5593 5592 5590 5588 5586 5585 5583 5581 5578 5577 5575 5572 5571 5569 5566 5564 5562 5560 5557 5555 5553 5550 5548 5546
5598 5598 5598 5597 5596 5596 5596 5596 5596 5595 5595 5594 5594 5594 5593 5592 5591 5590 5589 5587 5586 5584 5582 5581 5579 5577 5575 5573 5571 5569 5566 5564 5563 5560 5559 5557 5554 5552 5549 5547 5544 5542 5540 5538